M I D A S
Marine Information and Data Acquisition System
Tripno 1934 of the Zeeleeuw from 2010-08-10 06:22:44 to 2010-08-10 14:52:31
Back to CruiseResearch ActivitiesStationsMapUnderway DataData graphs

EquipmentUnitsComment
TimeDGPSUTC
LatitudeDGPSDM.mWGS84
LongitudeDGPSDM.mWGS84
TemperatureSBE03/SBE38deg celciusITS90
ConductivitySBE21S/mITS90
SalinitySBE21 Practical Salinity Units
ChlorophylAChelsea fluorimeterg/lCalibrated in Aceton
Missing or incorrect values are displayed as -999
Sea surface data collected by the RV Zeeleeuw from 2010-08-10 06:19:19 to 2010-08-10 14:59:33
Time Latitude Longitude Temperature Conductivity Salinity ChlorophylA
2010-08-10 06:20:25 51°13.684 2°55.891 21.7871 0.070468 0.361388 -0.965744
2010-08-10 06:21:25 51°13.696 2°55.788 21.7935 0.070468 0.361415 -1.000568
2010-08-10 06:22:24 51°13.7 2°55.747 21.7658 0.070468 0.361447 -0.965744
2010-08-10 06:23:25 51°13.691 2°55.733 21.8071 0.070468 0.361468 -0.93092
2010-08-10 06:24:24 51°13.735 2°55.711 21.8086 0.070468 0.361479 -0.965744
2010-08-10 06:25:23 51°13.863 2°55.612 21.7357 0.070468 0.361537 -1.000568
2010-08-10 06:26:21 51°14.018 2°55.507 21.7672 0.070468 0.361575 -1.000568
2010-08-10 06:28:22 51°14.348 2°55.228 21.7734 0.070468 0.361639 -1.000568
2010-08-10 06:31:22 51°14.583 2°54.479 21.7831 0.070468 0.361735 -0.965744
2010-08-10 06:32:22 51°14.468 2°54.162 21.796 0.070468 0.361762 -0.965744
2010-08-10 06:33:22 51°14.35 2°53.839 21.7936 0.070468 0.361804 -1.000568
2010-08-10 06:34:21 51°14.231 2°53.516 21.7951 0.070468 0.361836 -0.965744
2010-08-10 06:35:22 51°14.104 2°53.182 21.8032 0.070468 0.361874 -1.000568
2010-08-10 06:36:22 51°13.979 2°52.85 21.803 0.070468 0.361911 -0.965744
2010-08-10 06:37:21 51°13.855 2°52.524 21.8069 0.070364 0.361382 -1.000568
2010-08-10 06:38:22 51°13.726 2°52.187 21.802 0.070364 0.361425 -1.000568
2010-08-10 06:39:22 51°13.599 2°51.855 21.8078 0.070364 0.361457 -0.965744
2010-08-10 06:40:22 51°13.473 2°51.521 21.8224 0.070364 0.361489 -1.000568
2010-08-10 06:41:21 51°13.35 2°51.191 21.8145 0.070364 0.361526 -0.93092
2010-08-10 06:42:22 51°13.223 2°50.851 21.8297 0.070364 0.361558 -1.000568
2010-08-10 06:43:22 51°13.098 2°50.516 21.8264 0.070364 0.361591 -0.965744
2010-08-10 06:44:22 51°12.974 2°50.179 21.8455 0.070364 0.361623 -1.000568
2010-08-10 06:45:21 51°12.851 2°49.846 21.8403 0.070364 0.361655 -0.965744
2010-08-10 06:46:22 51°12.724 2°49.501 21.8581 0.070364 0.361682 -1.035392
2010-08-10 06:47:22 51°12.599 2°49.165 21.8708 0.070364 0.36173 -0.965744
2010-08-10 06:48:22 51°12.476 2°48.833 21.8716 0.070364 0.361757 -0.965744
2010-08-10 06:49:22 51°12.352 2°48.501 21.8766 0.070364 0.361794 -1.000568
2010-08-10 06:50:21 51°12.232 2°48.173 21.8848 0.070364 0.361826 -0.965744
2010-08-10 06:51:22 51°12.108 2°47.835 21.8952 0.070364 0.361858 -0.965744
2010-08-10 06:52:22 51°11.987 2°47.508 21.9083 0.070364 0.361885 -1.000568
2010-08-10 06:53:21 51°11.87 2°47.187 21.9266 0.070364 0.361928 -0.965744
2010-08-10 06:54:22 51°11.749 2°46.857 21.931 0.07026 0.361403 -0.965744
2010-08-10 06:55:21 51°11.632 2°46.538 21.9424 0.070364 0.361998 -1.000568
2010-08-10 06:56:22 51°11.514 2°46.207 21.9519 0.07026 0.361473 -0.965744
2010-08-10 06:57:21 51°11.397 2°45.89 21.9661 0.07026 0.36151 -0.965744
2010-08-10 06:58:22 51°11.278 2°45.559 21.8999 0.07026 0.361542 -1.000568
2010-08-10 06:59:22 51°11.16 2°45.236 21.991 0.07026 0.361575 -0.965744
2010-08-10 07:00:21 51°11.046 2°44.917 21.9925 0.07026 0.361618 -0.965744
2010-08-10 07:01:22 51°10.929 2°44.588 21.9971 0.07026 0.361644 -0.965744
2010-08-10 07:02:22 51°10.811 2°44.273 22.0074 0.07026 0.361687 -0.965744
2010-08-10 07:03:22 51°10.657 2°44.009 22.0134 0.07026 0.361714 -1.000568
2010-08-10 07:04:22 51°10.509 2°43.742 22.0261 0.07026 0.361741 -0.93092
2010-08-10 07:05:21 51°10.368 2°43.469 22.0302 0.07026 0.361778 -0.93092
2010-08-10 07:06:22 51°10.228 2°43.196 22.0426 0.07026 0.361827 -0.965744
2010-08-10 07:07:21 51°10.132 2°43.03 22.0526 0.07026 0.361859 -0.93092
2010-08-10 07:08:22 51°10.117 2°42.902 22.0632 0.07026 0.361923 -0.93092
2010-08-10 07:09:22 51°10.12 2°42.843 22.08 0.07026 0.361945 -0.93092
2010-08-10 07:10:21 51°10.117 2°42.824 22.0842 0.07026 0.361972 -0.965744
2010-08-10 07:11:22 51°10.114 2°42.806 22.0602 0.07026 0.362015 -0.93092
2010-08-10 07:12:23 51°10.114 2°42.789 22.0787 0.07026 0.362052 -0.93092
2010-08-10 07:13:22 51°10.114 2°42.772 22.1005 0.070156 0.361537 -0.965744
2010-08-10 07:14:23 51°10.114 2°42.752 22.1207 0.070156 0.361575 -0.93092
2010-08-10 07:15:23 51°10.113 2°42.732 22.1402 0.070156 0.361607 -0.93092
2010-08-10 07:16:22 51°10.111 2°42.713 22.1635 0.070156 0.361634 -0.93092
2010-08-10 07:17:22 51°10.109 2°42.695 22.1877 0.070156 0.361672 -0.965744
2010-08-10 07:18:21 51°10.107 2°42.677 22.217 0.070156 0.361709 -0.93092
2010-08-10 07:19:22 51°10.107 2°42.655 22.2406 0.070156 0.361747 -0.965744
2010-08-10 07:20:22 51°10.138 2°42.585 22.2631 0.070156 0.361801 -1.000568
2010-08-10 07:21:22 51°10.235 2°42.488 22.2816 0.070156 0.361838 -0.965744
2010-08-10 07:22:22 51°10.372 2°42.419 22.3175 0.070156 0.361882 -0.965744
2010-08-10 07:23:22 51°10.516 2°42.352 22.3362 0.070156 0.361925 -0.965744
2010-08-10 07:24:22 51°10.663 2°42.293 22.37 0.070156 0.361973 -0.965744
2010-08-10 07:25:21 51°10.807 2°42.24 22.3992 0.070156 0.362005 -1.000568
2010-08-10 07:26:22 51°10.957 2°42.203 22.434 0.070156 0.362048 -0.965744
2010-08-10 07:27:21 51°11.103 2°42.148 22.4608 0.070156 0.362075 -0.965744
2010-08-10 07:28:22 51°11.214 2°42.043 22.505 0.070156 0.362135 -0.965744
2010-08-10 07:29:22 51°11.206 2°41.916 22.5326 0.070052 0.361581 -0.93092
2010-08-10 07:30:21 51°11.157 2°41.858 22.5536 0.070052 0.361597 -0.965744
2010-08-10 07:33:17 51°10.944 2°41.817 22.6026 0.070052 0.3617 -0.965744
2010-08-10 07:34:17 51°10.873 2°41.758 22.6699 0.070052 0.361754 -0.965744
2010-08-10 07:35:17 51°10.817 2°41.711 22.7071 0.070052 0.36178 -0.965744
2010-08-10 07:36:17 51°10.772 2°41.649 22.731 0.070052 0.361818 -0.965744
2010-08-10 07:37:17 51°10.74 2°41.572 22.7643 0.070052 0.361861 -0.965744
2010-08-10 07:38:17 51°10.714 2°41.489 22.7945 0.070052 0.361888 -0.965744
2010-08-10 07:39:17 51°10.686 2°41.408 22.8226 0.070052 0.361915 -1.000568
2010-08-10 07:40:17 51°10.655 2°41.326 22.8473 0.070052 0.361953 -0.965744
2010-08-10 07:41:17 51°10.624 2°41.243 22.8734 0.070052 0.361985 -0.965744
2010-08-10 07:42:17 51°10.593 2°41.161 22.9014 0.070052 0.362023 -0.965744
2010-08-10 07:43:17 51°10.562 2°41.079 22.9324 0.070052 0.362056 -0.965744
2010-08-10 07:44:17 51°10.53 2°40.997 22.965 0.070052 0.362088 -0.965744
2010-08-10 07:45:17 51°10.498 2°40.915 22.9899 0.070052 0.362126 -0.93092
2010-08-10 07:46:17 51°10.467 2°40.835 23.0243 0.070052 0.362164 -1.000568
2010-08-10 07:47:17 51°10.436 2°40.756 23.0433 0.069948 0.361642 -0.93092
2010-08-10 07:48:17 51°10.405 2°40.677 23.0699 0.069948 0.361669 -0.93092
2010-08-10 07:49:17 51°10.375 2°40.599 23.0946 0.069948 0.361701 -0.965744
2010-08-10 07:50:17 51°10.344 2°40.522 23.1179 0.069948 0.361739 -0.965744
2010-08-10 07:51:17 51°10.314 2°40.445 23.1223 0.069948 0.361771 -0.965744
2010-08-10 07:52:17 51°10.283 2°40.367 23.1611 0.069948 0.361798 -0.93092
2010-08-10 07:53:17 51°10.25 2°40.292 23.19 0.069948 0.361836 -0.965744
2010-08-10 07:54:17 51°10.22 2°40.216 23.2219 0.069948 0.361868 -0.965744
2010-08-10 07:55:17 51°10.19 2°40.141 23.2456 0.069948 0.361901 -0.965744
2010-08-10 07:56:17 51°10.16 2°40.065 23.2725 0.069948 0.361928 -0.93092
2010-08-10 07:57:17 51°10.131 2°39.991 23.297 0.069948 0.361966 -0.965744
2010-08-10 07:58:17 51°10.101 2°39.917 23.3138 0.069948 0.361998 -0.93092
2010-08-10 07:59:17 51°10.071 2°39.841 23.3418 0.069948 0.362025 -0.965744
2010-08-10 08:00:17 51°10.04 2°39.771 23.3712 0.069948 0.362058 -0.965744
2010-08-10 08:01:17 51°9.993 2°39.714 23.3792 0.069948 0.36209 -0.965744
2010-08-10 08:02:17 51°9.932 2°39.667 23.4088 0.069948 0.362123 -0.965744
2010-08-10 08:03:17 51°9.885 2°39.61 23.4426 0.069948 0.362155 -0.965744
2010-08-10 08:04:17 51°9.848 2°39.547 23.4618 0.069948 0.362182 -0.965744
2010-08-10 08:05:17 51°9.817 2°39.469 23.4845 0.069948 0.362215 -0.965744
2010-08-10 08:06:17 51°9.798 2°39.371 23.5067 0.069948 0.362247 -0.965744
2010-08-10 08:07:17 51°9.806 2°39.258 23.5251 0.069844 0.361724 -0.965744
2010-08-10 08:08:17 51°9.845 2°39.159 23.552 0.069948 0.362312 -0.965744
2010-08-10 08:09:17 51°9.881 2°39.104 23.5751 0.069844 0.361795 -0.965744
2010-08-10 08:10:17 51°9.907 2°39.059 23.5986 0.069948 0.362388 -0.93092
2010-08-10 08:11:17 51°9.921 2°39.015 23.6177 0.069844 0.36187 -0.965744
2010-08-10 08:12:17 51°9.932 2°38.967 23.6403 0.069844 0.361903 -0.965744
2010-08-10 08:13:17 51°10.007 2°38.902 23.6519 0.069844 0.361979 -0.965744
2010-08-10 08:14:17 51°10.087 2°38.992 23.6738 0.069844 0.362 -0.93092
2010-08-10 08:15:17 51°10.097 2°39.069 23.6967 0.069844 0.362022 -0.965744
2010-08-10 08:16:17 51°10.087 2°39.108 23.7196 0.069844 0.362055 -0.965744
2010-08-10 08:17:17 51°10.074 2°39.132 23.7411 0.069844 0.362093 -0.965744
2010-08-10 08:18:17 51°10.001 2°39.201 23.748 0.069844 0.36213 -1.000568
2010-08-10 08:19:17 51°9.89 2°39.092 23.7713 0.069844 0.362168 -0.93092
2010-08-10 08:20:17 51°9.877 2°38.94 23.802 0.069844 0.362185 -0.965744
2010-08-10 08:21:17 51°9.891 2°38.843 23.8209 0.069844 0.362212 -0.965744
2010-08-10 08:22:17 51°9.904 2°38.771 23.84 0.069844 0.362244 -0.93092
2010-08-10 08:23:17 51°9.908 2°38.712 23.8627 0.069844 0.362282 -0.93092
2010-08-10 08:24:17 51°9.907 2°38.661 23.883 0.069844 0.362315 -0.965744
2010-08-10 08:25:17 51°9.905 2°38.619 23.902 0.069844 0.362353 -0.93092
2010-08-10 08:26:17 51°9.903 2°38.584 23.9207 0.06974 0.361835 -0.93092
2010-08-10 08:27:17 51°9.902 2°38.552 23.9397 0.06974 0.361878 -0.965744
2010-08-10 08:28:17 51°9.901 2°38.522 23.9579 0.06974 0.361911 -0.965744
2010-08-10 08:29:17 51°9.901 2°38.496 23.9769 0.06974 0.361959 -0.965744
2010-08-10 08:30:17 51°9.902 2°38.472 23.9925 0.06974 0.361997 -0.965744
2010-08-10 08:31:17 51°9.901 2°38.452 24.0137 0.06974 0.362052 -0.965744
2010-08-10 08:32:17 51°9.9 2°38.432 24.0302 0.06974 0.36209 -0.965744
2010-08-10 08:33:17 51°9.9 2°38.412 24.0464 0.06974 0.362133 -0.93092
2010-08-10 08:34:46 51°9.949 2°38.373 24.0645 0.06974 0.362204 -0.965744
2010-08-10 08:36:53 51°9.996 2°38.678 24.0913 0.06974 0.362258 -0.93092
2010-08-10 08:37:53 51°10.045 2°38.964 24.1101 0.06974 0.362286 -0.93092
2010-08-10 08:38:53 51°10.109 2°39.264 24.1369 0.06974 0.36234 -0.93092
2010-08-10 08:39:53 51°10.204 2°39.545 24.1565 0.06974 0.362351 -0.965744
2010-08-10 08:40:53 51°10.301 2°39.826 24.1698 0.069635 0.361837 -0.93092
2010-08-10 08:41:53 51°10.386 2°40.115 24.1879 0.06974 0.362433 -0.93092
2010-08-10 08:42:53 51°10.459 2°40.413 24.201 0.069635 0.361913 -0.965744
2010-08-10 08:43:53 51°10.533 2°40.712 24.2202 0.069635 0.361951 -0.965744
2010-08-10 08:44:53 51°10.606 2°41.01 24.2363 0.069635 0.361989 -0.93092
2010-08-10 08:45:53 51°10.679 2°41.308 24.2561 0.069635 0.362028 -0.965744
2010-08-10 08:46:53 51°10.753 2°41.606 24.2694 0.069635 0.362066 -0.965744
2010-08-10 08:47:53 51°10.826 2°41.904 24.2856 0.069635 0.362115 -0.965744
2010-08-10 08:48:53 51°10.899 2°42.201 24.3065 0.069635 0.362153 -0.93092
2010-08-10 08:49:53 51°10.971 2°42.497 24.3192 0.069635 0.362185 -0.965744
2010-08-10 08:50:53 51°11.044 2°42.791 24.3378 0.069635 0.362229 -0.93092
2010-08-10 08:51:53 51°11.118 2°43.083 24.3547 0.069531 0.361715 -1.000568
2010-08-10 08:52:53 51°11.191 2°43.374 24.3696 0.069531 0.361747 -0.965744
2010-08-10 08:53:53 51°11.262 2°43.668 24.3878 0.069531 0.361791 -0.93092
2010-08-10 08:54:53 51°11.324 2°43.967 24.4062 0.069531 0.361824 -0.93092
2010-08-10 08:55:53 51°11.386 2°44.268 24.4148 0.069531 0.361873 -1.000568
2010-08-10 08:56:53 51°11.449 2°44.568 24.4372 0.069531 0.361905 -0.93092
2010-08-10 08:57:53 51°11.512 2°44.867 24.447 0.069531 0.361949 -0.93092
2010-08-10 08:58:53 51°11.582 2°45.161 24.5156 0.069531 0.361998 -0.93092
2010-08-10 08:59:53 51°11.653 2°45.455 24.5295 0.069531 0.362042 -0.93092
2010-08-10 09:00:53 51°11.724 2°45.749 24.5255 0.069531 0.362069 -0.93092
2010-08-10 09:01:53 51°11.8 2°46.039 24.522 0.069531 0.362107 -0.965744
2010-08-10 09:02:53 51°11.879 2°46.327 24.5208 0.069531 0.362145 -0.93092
2010-08-10 09:03:53 51°11.955 2°46.615 24.5182 0.069427 0.361647 -0.93092
2010-08-10 09:04:53 51°12.033 2°46.902 24.5183 0.069427 0.36169 -0.965744
2010-08-10 09:05:53 51°12.11 2°47.191 24.5211 0.069427 0.361729 -1.000568
2010-08-10 09:06:53 51°12.187 2°47.478 24.5204 0.069427 0.361772 -0.965744
2010-08-10 09:07:53 51°12.273 2°47.761 24.5194 0.069427 0.361821 -0.965744
2010-08-10 09:08:53 51°12.359 2°48.044 24.5249 0.069427 0.36186 -0.93092
2010-08-10 09:09:53 51°12.443 2°48.329 24.5261 0.069427 0.361898 -0.93092
2010-08-10 09:10:53 51°12.526 2°48.616 24.5267 0.069427 0.361941 -0.93092
2010-08-10 09:11:53 51°12.61 2°48.902 24.5287 0.069427 0.36198 -0.965744
2010-08-10 09:12:53 51°12.693 2°49.19 24.5314 0.069427 0.362023 -0.965744
2010-08-10 09:13:53 51°12.777 2°49.478 24.535 0.069427 0.362067 -0.965744
2010-08-10 09:14:53 51°12.86 2°49.765 24.5355 0.069427 0.362105 -0.965744
2010-08-10 09:15:53 51°12.943 2°50.05 24.5502 0.069427 0.362138 -0.965744
2010-08-10 09:16:53 51°13.026 2°50.336 24.5443 0.069323 0.361628 -0.93092
2010-08-10 09:17:53 51°13.134 2°50.597 24.5465 0.069323 0.361672 -0.965744
2010-08-10 09:18:53 51°13.217 2°50.792 24.5492 0.069323 0.361704 -0.93092
2010-08-10 09:19:53 51°13.282 2°50.953 24.5515 0.069323 0.361737 -0.965744
2010-08-10 09:20:53 51°13.317 2°51.06 24.5555 0.069323 0.361786 -0.93092
2010-08-10 09:21:53 51°13.314 2°51.142 24.5573 0.069323 0.361819 -0.965744
2010-08-10 09:22:53 51°13.278 2°51.221 24.561 0.069323 0.361858 -0.965744
2010-08-10 09:23:53 51°13.228 2°51.286 24.5643 0.069323 0.36189 -0.965744
2010-08-10 09:24:53 51°13.17 2°51.322 24.5724 0.069323 0.361934 -0.965744
2010-08-10 09:25:53 51°13.114 2°51.326 24.5707 0.069323 0.361978 -0.93092
2010-08-10 09:26:53 51°13.06 2°51.316 24.5735 0.069323 0.362016 -0.965744
2010-08-10 09:27:53 51°13.009 2°51.294 24.5752 0.069323 0.362049 -0.93092
2010-08-10 09:28:53 51°12.959 2°51.264 24.5774 0.069219 0.361522 -0.93092
2010-08-10 09:29:53 51°12.912 2°51.219 24.5805 0.069323 0.362104 -0.965744
2010-08-10 09:30:53 51°12.868 2°51.161 24.5814 0.069323 0.36212 -0.965744
2010-08-10 09:31:53 51°12.833 2°51.087 24.5875 0.069323 0.362148 -0.965744
2010-08-10 09:32:53 51°12.8 2°51.013 24.5899 0.069323 0.362159 -0.965744
2010-08-10 09:33:53 51°12.765 2°50.94 24.5937 0.069219 0.361615 -0.965744
2010-08-10 09:34:53 51°12.731 2°50.863 24.6007 0.069219 0.361637 -0.965744
2010-08-10 09:35:53 51°12.697 2°50.787 24.6001 0.069219 0.361648 -0.965744
2010-08-10 09:37:27 51°12.644 2°50.667 24.6057 0.069219 0.36167 -1.000568
2010-08-10 09:38:46 51°12.602 2°50.564 24.6115 0.069323 0.362246 -0.965744
2010-08-10 09:39:45 51°12.571 2°50.493 24.6131 0.069323 0.362268 -0.965744
2010-08-10 09:40:46 51°12.539 2°50.415 24.6144 0.069323 0.362279 -0.93092
2010-08-10 09:41:46 51°12.508 2°50.337 24.6179 0.069323 0.362307 -0.965744
2010-08-10 09:42:46 51°12.481 2°50.258 24.6197 0.069323 0.362323 -0.93092
2010-08-10 09:43:45 51°12.456 2°50.18 24.6242 0.069323 0.36234 -0.93092
2010-08-10 09:44:46 51°12.429 2°50.099 24.6259 0.069323 0.362356 -0.965744
2010-08-10 09:45:46 51°12.401 2°50.017 24.6281 0.069219 0.361812 -0.965744
2010-08-10 09:46:45 51°12.376 2°49.939 24.6303 0.069323 0.3624 -0.93092
2010-08-10 09:47:46 51°12.346 2°49.868 24.6329 0.069323 0.362422 -0.965744
2010-08-10 09:48:46 51°12.314 2°49.799 24.6336 0.069219 0.361889 -0.965744
2010-08-10 09:49:46 51°12.287 2°49.731 24.6376 0.069323 0.362461 -0.93092
2010-08-10 09:50:46 51°12.263 2°49.672 24.6421 0.069323 0.362483 -0.93092
2010-08-10 09:51:46 51°12.237 2°49.617 24.6418 0.069323 0.362504 -1.000568
2010-08-10 09:52:45 51°12.212 2°49.562 24.6439 0.069323 0.362532 -0.965744
2010-08-10 09:53:46 51°12.181 2°49.498 24.6454 0.069323 0.362554 -0.965744
2010-08-10 09:54:45 51°12.148 2°49.433 24.6492 0.069323 0.362565 -0.965744
2010-08-10 09:55:46 51°12.117 2°49.372 24.6516 0.069323 0.362587 -0.965744
2010-08-10 09:56:46 51°12.088 2°49.312 24.668 0.069323 0.362609 -0.93092
2010-08-10 09:57:46 51°12.061 2°49.252 24.673 0.069323 0.362631 -0.965744
2010-08-10 09:58:46 51°12.034 2°49.188 24.6829 0.069323 0.362647 -0.965744
2010-08-10 09:59:46 51°12.007 2°49.124 24.6912 0.069323 0.362664 -0.93092
2010-08-10 10:00:46 51°11.995 2°49.051 24.7 0.069323 0.362697 -0.93092
2010-08-10 10:01:46 51°11.996 2°48.976 24.7095 0.069323 0.362702 -0.93092
2010-08-10 10:02:46 51°12.015 2°48.902 24.7181 0.069323 0.36273 -0.965744
2010-08-10 10:03:46 51°12.048 2°48.839 24.7268 0.069323 0.362746 -0.93092
2010-08-10 10:04:46 51°12.08 2°48.807 24.7363 0.069323 0.362774 -0.93092
2010-08-10 10:05:46 51°12.108 2°48.793 24.745 0.069323 0.362796 -0.965744
2010-08-10 10:06:46 51°12.141 2°48.793 24.7543 0.069323 0.362823 -0.965744
2010-08-10 10:07:46 51°12.176 2°48.811 24.7643 0.069323 0.362846 -0.93092
2010-08-10 10:08:46 51°12.205 2°48.851 24.7743 0.069323 0.362862 -0.965744
2010-08-10 10:09:46 51°12.257 2°48.941 24.7845 0.069323 0.362873 -0.965744
2010-08-10 10:10:46 51°12.342 2°49.02 24.7954 0.069323 0.362895 -0.93092
2010-08-10 10:11:46 51°12.456 2°49.063 24.8061 0.069323 0.362906 -0.965744
2010-08-10 10:12:46 51°12.574 2°49.171 24.8178 0.069323 0.362939 -0.965744
2010-08-10 10:13:46 51°12.693 2°49.339 24.83 0.069323 0.362945 -0.965744
2010-08-10 10:14:46 51°12.746 2°49.497 24.8427 0.069323 0.362972 -0.965744
2010-08-10 10:15:46 51°12.748 2°49.582 24.8539 0.069323 0.362983 -0.965744
2010-08-10 10:16:46 51°12.748 2°49.635 24.8647 0.069219 0.362438 -0.965744
2010-08-10 10:17:46 51°12.749 2°49.674 24.8783 0.069219 0.362455 -0.93092
2010-08-10 10:18:46 51°12.752 2°49.705 24.8897 0.069323 0.363044 -0.93092
2010-08-10 10:19:45 51°12.751 2°49.737 24.903 0.069219 0.362504 -0.965744
2010-08-10 10:20:46 51°12.675 2°49.804 24.9191 0.069219 0.362537 -0.93092
2010-08-10 10:21:45 51°12.532 2°49.821 24.9319 0.069219 0.362565 -0.93092
2010-08-10 10:22:46 51°12.383 2°49.738 24.9445 0.069219 0.362587 -0.965744
2010-08-10 10:23:46 51°12.285 2°49.585 24.9544 0.069219 0.362625 -0.965744
2010-08-10 10:24:46 51°12.279 2°49.482 24.9634 0.069219 0.362653 -0.965744
2010-08-10 10:25:46 51°12.299 2°49.421 24.9753 0.069219 0.362664 -0.93092
2010-08-10 10:26:46 51°12.346 2°49.372 24.9944 0.069219 0.362686 -0.965744
2010-08-10 10:27:46 51°12.44 2°49.446 25.0107 0.069219 0.362675 -0.965744
2010-08-10 10:28:46 51°12.568 2°49.677 25.0265 0.069219 0.362702 -0.965744
2010-08-10 10:29:46 51°12.695 2°49.94 25.0409 0.069219 0.362714 -0.93092
2010-08-10 10:30:46 51°12.818 2°50.212 25.053 0.069219 0.362741 -0.93092
2010-08-10 10:31:46 51°12.927 2°50.498 25.0666 0.069219 0.362758 -0.965744
2010-08-10 10:32:46 51°13.038 2°50.784 25.0763 0.069219 0.362774 -0.965744
2010-08-10 10:33:46 51°13.15 2°51.069 25.0937 0.069219 0.362785 -0.93092
2010-08-10 10:34:46 51°13.239 2°51.303 25.0994 0.069115 0.362234 -0.965744
2010-08-10 10:35:46 51°13.297 2°51.448 25.1103 0.069219 0.362824 -0.965744
2010-08-10 10:36:46 51°13.363 2°51.509 25.1203 0.069115 0.362284 -0.965744
2010-08-10 10:37:45 51°13.422 2°51.481 25.1429 0.069115 0.362284 -0.965744
2010-08-10 10:39:05 51°13.488 2°51.452 25.1627 0.069115 0.362339 -0.965744
2010-08-10 10:41:17 51°13.52 2°51.532 25.1686 0.069115 0.362355 -0.896096
2010-08-10 10:42:17 51°13.54 2°51.568 25.19 0.069115 0.362361 -0.965744
2010-08-10 10:43:17 51°13.562 2°51.603 25.2023 0.069115 0.362377 -0.965744
2010-08-10 10:44:15 51°13.583 2°51.636 25.2132 0.069115 0.362388 -0.93092
2010-08-10 10:45:13 51°13.605 2°51.67 25.2267 0.069115 0.362394 -0.965744
2010-08-10 10:46:13 51°13.627 2°51.714 25.2387 0.069115 0.36241 -0.965744
2010-08-10 10:47:13 51°13.642 2°51.769 25.2609 0.069115 0.362427 -0.965744
2010-08-10 10:48:17 51°13.643 2°51.826 25.2714 0.069115 0.362443 -0.965744
2010-08-10 10:49:15 51°13.693 2°51.935 25.2812 0.069115 0.362466 -0.93092
2010-08-10 10:50:13 51°13.783 2°52.16 25.3009 0.069115 0.362482 -0.965744
2010-08-10 10:51:13 51°13.904 2°52.426 25.3077 0.069011 0.361914 -0.965744
2010-08-10 10:52:13 51°14.015 2°52.679 25.3192 0.069011 0.36192 -0.965744
2010-08-10 10:53:13 51°14.118 2°52.933 25.3321 0.069011 0.361931 -0.965744
2010-08-10 10:54:13 51°14.222 2°53.187 25.3462 0.069011 0.361947 -0.965744
2010-08-10 10:55:13 51°14.327 2°53.44 25.3571 0.069011 0.361958 -0.965744
2010-08-10 10:56:13 51°14.432 2°53.695 25.3677 0.069011 0.36198 -0.965744
2010-08-10 10:57:13 51°14.567 2°53.992 25.3971 0.069011 0.361986 -0.965744
2010-08-10 10:58:13 51°14.718 2°54.305 25.3988 0.069011 0.361991 -1.000568
2010-08-10 10:59:13 51°14.879 2°54.606 25.4231 0.069011 0.361991 -0.965744
2010-08-10 11:00:13 51°15.05 2°54.894 25.4039 0.069011 0.362052 -0.896096
2010-08-10 11:01:13 51°15.261 2°55.104 25.4301 0.069011 0.362057 -0.93092
2010-08-10 11:02:13 51°15.454 2°55.348 25.4349 0.069011 0.362046 -0.965744
2010-08-10 11:03:13 51°15.612 2°55.655 25.4454 0.069011 0.362068 -0.965744
2010-08-10 11:04:13 51°15.756 2°55.981 25.4164 0.069011 0.362096 -0.965744
2010-08-10 11:05:13 51°15.9 2°56.31 25.4406 0.069011 0.36209 -0.93092
2010-08-10 11:06:13 51°16.044 2°56.637 25.4535 0.069011 0.362063 -1.000568
2010-08-10 11:07:13 51°16.19 2°56.96 25.4362 0.069011 0.362079 -0.93092
2010-08-10 11:08:13 51°16.336 2°57.289 25.4508 0.069011 0.362079 -0.93092
2010-08-10 11:09:13 51°16.485 2°57.616 25.4351 0.069011 0.362107 -0.965744
2010-08-10 11:10:13 51°16.63 2°57.943 25.4522 0.069011 0.362112 -0.965744
2010-08-10 11:11:13 51°16.778 2°58.27 25.4486 0.069011 0.362118 -0.965744
2010-08-10 11:12:13 51°16.928 2°58.599 25.4628 0.069011 0.362129 -0.965744
2010-08-10 11:13:13 51°17.076 2°58.927 25.4763 0.068907 0.361583 -0.965744
2010-08-10 11:14:13 51°17.225 2°59.256 25.4662 0.068907 0.361588 -0.965744
2010-08-10 11:15:13 51°17.375 2°59.586 25.4679 0.069011 0.362168 -0.965744
2010-08-10 11:16:13 51°17.525 2°59.915 25.4764 0.068907 0.361599 -0.965744
2010-08-10 11:17:13 51°17.676 3°0.244 25.4679 0.069011 0.362201 -0.965744
2010-08-10 11:18:13 51°17.827 3°0.578 25.4816 0.069011 0.362201 -0.93092
2010-08-10 11:19:13 51°17.977 3°0.909 25.4792 0.069011 0.36219 -0.965744
2010-08-10 11:20:13 51°18.129 3°1.24 25.4781 0.068907 0.361654 -0.93092
2010-08-10 11:21:13 51°18.282 3°1.572 25.4771 0.069011 0.362212 -0.965744
2010-08-10 11:22:13 51°18.434 3°1.898 25.4878 0.068907 0.361671 -0.93092
2010-08-10 11:23:13 51°18.581 3°2.224 25.4934 0.069011 0.362234 -0.965744
2010-08-10 11:24:13 51°18.729 3°2.549 25.4861 0.068907 0.361698 -0.93092
2010-08-10 11:25:13 51°18.879 3°2.879 25.4907 0.068907 0.361693 -0.93092
2010-08-10 11:26:13 51°19.03 3°3.213 25.4912 0.068907 0.361671 -0.965744
2010-08-10 11:27:13 51°19.18 3°3.549 25.4959 0.068907 0.361687 -0.965744
2010-08-10 11:28:13 51°19.331 3°3.883 25.497 0.068907 0.361698 -0.965744
2010-08-10 11:29:13 51°19.482 3°4.209 25.4995 0.068907 0.361731 -0.965744
2010-08-10 11:30:13 51°19.627 3°4.536 25.5034 0.068907 0.361731 -0.93092
2010-08-10 11:31:13 51°19.776 3°4.863 25.5051 0.068907 0.36172 -0.965744
2010-08-10 11:32:13 51°19.928 3°5.193 25.5029 0.068907 0.361726 -0.93092
2010-08-10 11:33:13 51°20.081 3°5.527 25.5047 0.068907 0.361726 -0.965744
2010-08-10 11:34:13 51°20.231 3°5.86 25.506 0.068907 0.361759 -0.965744
2010-08-10 11:35:13 51°20.384 3°6.197 25.5095 0.068907 0.361759 -0.965744
2010-08-10 11:36:13 51°20.537 3°6.536 25.5103 0.068907 0.361742 -0.965744
2010-08-10 11:37:13 51°20.688 3°6.87 25.5117 0.068907 0.361764 -0.965744
2010-08-10 11:38:13 51°20.841 3°7.202 25.5155 0.068907 0.36177 -0.93092
2010-08-10 11:39:13 51°20.997 3°7.534 25.5163 0.068907 0.361798 -0.965744
2010-08-10 11:40:13 51°21.153 3°7.868 25.5158 0.068907 0.361775 -0.965744
2010-08-10 11:41:13 51°21.308 3°8.2 25.5183 0.068907 0.361798 -0.93092
2010-08-10 11:45:33 51°21.984 3°9.652 25.5215 0.068907 0.361814 -0.93092
2010-08-10 11:46:33 51°22.137 3°9.996 25.5189 0.068907 0.361809 -0.965744
2010-08-10 11:47:33 51°22.29 3°10.345 25.5267 0.068907 0.36182 -0.965744
2010-08-10 11:48:33 51°22.417 3°10.672 25.5256 0.068907 0.361831 -0.965744
2010-08-10 11:49:33 51°22.441 3°10.893 25.4981 0.068907 0.361847 -0.965744
2010-08-10 11:50:34 51°22.431 3°11.039 25.5091 0.068907 0.361847 -0.965744
2010-08-10 11:51:34 51°22.451 3°11.123 25.5103 0.068907 0.361858 -0.965744
2010-08-10 11:52:37 51°22.485 3°11.162 25.5193 0.068907 0.361853 -0.965744
2010-08-10 11:53:37 51°22.5 3°11.15 25.5276 0.068907 0.361858 -0.965744
2010-08-10 11:54:37 51°22.503 3°11.164 25.5385 0.068907 0.361864 -0.965744
2010-08-10 11:55:37 51°22.528 3°11.249 25.5436 0.068907 0.36188 -0.965744
2010-08-10 11:56:36 51°22.552 3°11.331 25.5515 0.068907 0.361891 -0.965744
2010-08-10 11:57:34 51°22.578 3°11.412 25.5577 0.068907 0.361891 -0.965744
2010-08-10 11:58:33 51°22.602 3°11.491 25.5677 0.068907 0.361891 -0.965744
2010-08-10 11:59:33 51°22.624 3°11.571 25.5724 0.068907 0.361891 -1.000568
2010-08-10 12:00:33 51°22.643 3°11.652 25.5805 0.068907 0.361886 -0.965744
2010-08-10 12:01:33 51°22.662 3°11.736 25.587 0.068907 0.361886 -0.93092
2010-08-10 12:02:33 51°22.68 3°11.823 25.5936 0.068907 0.361886 -0.965744
2010-08-10 12:03:33 51°22.698 3°11.915 25.6017 0.068907 0.361897 -0.965744
2010-08-10 12:04:34 51°22.749 3°11.988 25.6116 0.068907 0.361897 -0.93092
2010-08-10 12:05:33 51°22.909 3°12.179 25.624 0.068907 0.361908 -0.965744
2010-08-10 12:06:33 51°23.109 3°12.422 25.6476 0.068907 0.361897 -0.93092
2010-08-10 12:07:33 51°23.312 3°12.665 25.6528 0.068907 0.36188 -0.965744
2010-08-10 12:08:33 51°23.512 3°12.913 25.6727 0.068907 0.361864 -0.93092
2010-08-10 12:09:34 51°23.713 3°13.163 25.6845 0.068907 0.361875 -0.93092
2010-08-10 12:10:33 51°23.91 3°13.404 25.6985 0.068907 0.361858 -0.93092
2010-08-10 12:11:34 51°24.056 3°13.739 25.7033 0.068907 0.361886 -0.93092
2010-08-10 12:12:33 51°24.088 3°13.994 25.7121 0.068907 0.36188 -0.965744
2010-08-10 12:13:33 51°24.05 3°14.135 25.7218 0.068907 0.361875 -0.965744
2010-08-10 12:14:33 51°24.015 3°14.223 25.7291 0.068907 0.361869 -1.000568
2010-08-10 12:15:33 51°23.992 3°14.306 25.7419 0.068907 0.361875 -0.965744
2010-08-10 12:16:33 51°23.984 3°14.392 25.7524 0.068907 0.36188 -0.93092
2010-08-10 12:17:33 51°23.982 3°14.475 25.7654 0.068907 0.361891 -0.965744
2010-08-10 12:18:33 51°23.983 3°14.556 25.7699 0.068907 0.361902 -0.93092
2010-08-10 12:19:33 51°23.93 3°14.617 25.7885 0.068907 0.361913 -0.965744
2010-08-10 12:20:34 51°23.87 3°14.652 25.7946 0.068907 0.361924 -0.965744
2010-08-10 12:21:33 51°23.82 3°14.667 25.8004 0.068907 0.361941 -0.965744
2010-08-10 12:22:34 51°23.751 3°14.703 25.8125 0.068907 0.361958 -0.965744
2010-08-10 12:23:33 51°23.682 3°14.759 25.8376 0.068907 0.361969 -0.93092
2010-08-10 12:24:33 51°23.618 3°14.763 25.8384 0.068907 0.361985 -0.965744
2010-08-10 12:25:33 51°23.567 3°14.714 25.8491 0.068907 0.361991 -0.93092
2010-08-10 12:26:33 51°23.532 3°14.656 25.8589 0.068907 0.361991 -0.965744
2010-08-10 12:27:33 51°23.524 3°14.603 25.8627 0.068907 0.362002 -0.93092
2010-08-10 12:28:33 51°23.52 3°14.552 25.8764 0.068907 0.362013 -0.965744
2010-08-10 12:29:33 51°23.509 3°14.502 25.8889 0.068907 0.362013 -0.93092
2010-08-10 12:30:33 51°23.49 3°14.453 25.8942 0.068907 0.362018 -0.965744
2010-08-10 12:31:33 51°23.461 3°14.406 25.9058 0.068907 0.362018 -0.965744
2010-08-10 12:32:33 51°23.43 3°14.362 25.9194 0.068907 0.362018 -1.000568
2010-08-10 12:33:34 51°23.42 3°14.305 25.9291 0.068907 0.362029 -0.965744
2010-08-10 12:34:33 51°23.415 3°14.244 25.9292 0.068907 0.362024 -0.965744
2010-08-10 12:35:33 51°23.411 3°14.182 25.9435 0.068907 0.362024 -0.965744
2010-08-10 12:36:33 51°23.409 3°14.122 25.9565 0.068907 0.362035 -0.965744
2010-08-10 12:37:33 51°23.407 3°14.06 25.975 0.068907 0.362035 -0.93092
2010-08-10 12:38:34 51°23.406 3°13.995 25.9728 0.068907 0.362029 -0.965744
2010-08-10 12:39:33 51°23.404 3°13.932 25.9907 0.068907 0.362035 -0.93092
2010-08-10 12:40:33 51°23.401 3°13.867 26.0093 0.068907 0.362035 -0.93092
2010-08-10 12:41:33 51°23.401 3°13.802 26.0072 0.068907 0.362035 -0.965744
2010-08-10 12:42:33 51°23.399 3°13.736 26.0274 0.068907 0.362035 -0.93092
2010-08-10 12:43:33 51°23.397 3°13.67 26.0282 0.068907 0.362035 -0.93092
2010-08-10 12:44:33 51°23.395 3°13.604 26.036 0.068907 0.362046 -0.965744
2010-08-10 12:49:12 51°23.36 3°13.283 26.0576 0.068907 0.362046 -0.93092
2010-08-10 12:50:24 51°23.35 3°13.202 26.0851 0.068907 0.362046 -0.93092
2010-08-10 12:51:24 51°23.341 3°13.134 26.1075 0.068907 0.362051 -0.93092
2010-08-10 12:52:24 51°23.307 3°13.098 26.1491 0.068907 0.362057 -0.93092
2010-08-10 12:53:23 51°23.249 3°13.107 26.1661 0.068907 0.362029 -0.93092
2010-08-10 12:54:24 51°23.19 3°13.118 26.1606 0.068907 0.362046 -0.965744
2010-08-10 12:55:24 51°23.132 3°13.157 26.174 0.068907 0.362046 -0.93092
2010-08-10 12:56:24 51°23.086 3°13.202 26.2009 0.068907 0.36204 -0.93092
2010-08-10 12:57:24 51°23.045 3°13.245 26.19 0.068907 0.362057 -0.965744
2010-08-10 12:58:24 51°23.008 3°13.275 26.2101 0.068907 0.362057 -0.93092
2010-08-10 12:59:24 51°22.978 3°13.296 26.2175 0.068907 0.362062 -0.965744
2010-08-10 13:00:24 51°22.965 3°13.32 26.208 0.068907 0.362085 -0.965744
2010-08-10 13:01:23 51°22.936 3°13.305 26.2278 0.068907 0.362079 -0.965744
2010-08-10 13:02:24 51°22.858 3°13.24 26.2504 0.068907 0.362101 -0.965744
2010-08-10 13:03:24 51°22.807 3°13.272 26.2494 0.068907 0.362085 -0.965744
2010-08-10 13:04:24 51°22.78 3°13.329 26.256 0.068907 0.362085 -0.965744
2010-08-10 13:05:24 51°22.766 3°13.392 26.258 0.068907 0.362096 -0.93092
2010-08-10 13:06:24 51°22.761 3°13.454 26.2703 0.068907 0.362107 -0.93092
2010-08-10 13:07:24 51°22.709 3°13.515 26.312 0.068907 0.362107 -0.93092
2010-08-10 13:08:24 51°22.599 3°13.499 26.3011 0.068907 0.362151 -0.93092
2010-08-10 13:09:23 51°22.56 3°13.491 26.2981 0.068907 0.362156 -0.93092
2010-08-10 13:10:24 51°22.544 3°13.51 26.3107 0.068907 0.362145 -1.000568
2010-08-10 13:11:24 51°22.538 3°13.546 26.3065 0.068907 0.362151 -0.93092
2010-08-10 13:12:24 51°22.519 3°13.544 26.3422 0.068907 0.362145 -0.965744
2010-08-10 13:13:24 51°22.498 3°13.372 26.3544 0.068907 0.362167 -0.965744
2010-08-10 13:14:24 51°22.466 3°13.104 26.3615 0.068907 0.362167 -0.965744
2010-08-10 13:15:24 51°22.437 3°12.858 26.349 0.068907 0.362167 -0.93092
2010-08-10 13:16:24 51°22.424 3°12.729 26.3362 0.068907 0.362167 -1.000568
2010-08-10 13:17:24 51°22.417 3°12.622 26.3575 0.068907 0.362167 -0.965744
2010-08-10 13:18:24 51°22.406 3°12.493 26.3495 0.068907 0.362179 -1.000568
2010-08-10 13:19:23 51°22.398 3°12.371 26.3513 0.068907 0.362179 -0.965744
2010-08-10 13:20:24 51°22.386 3°12.22 26.3758 0.068907 0.36219 -0.965744
2010-08-10 13:21:23 51°22.37 3°12.027 26.3862 0.068907 0.362195 -0.965744
2010-08-10 13:22:23 51°22.351 3°11.805 26.3729 0.068907 0.362206 -0.93092
2010-08-10 13:23:24 51°22.308 3°11.53 26.4173 0.068907 0.362217 -0.965744
2010-08-10 13:24:24 51°22.277 3°11.242 26.407 0.069011 0.362792 -0.965744
2010-08-10 13:25:23 51°22.245 3°10.958 26.4237 0.069011 0.362803 -0.93092
2010-08-10 13:26:23 51°22.213 3°10.665 26.445 0.068907 0.362245 -0.965744
2010-08-10 13:27:23 51°22.18 3°10.369 26.4328 0.069011 0.362825 -0.965744
2010-08-10 13:28:24 51°22.154 3°10.069 26.4334 0.068907 0.362273 -0.965744
2010-08-10 13:29:23 51°22.131 3°9.776 26.4356 0.069011 0.362853 -0.93092
2010-08-10 13:30:23 51°22.108 3°9.476 26.4377 0.069011 0.362864 -0.965744
2010-08-10 13:31:23 51°22.086 3°9.175 26.4453 0.069011 0.362875 -0.965744
2010-08-10 13:32:23 51°22.062 3°8.872 26.4631 0.069011 0.362892 -0.93092
2010-08-10 13:33:24 51°22.038 3°8.563 26.4832 0.068907 0.362339 -0.965744
2010-08-10 13:34:23 51°22.014 3°8.266 26.4845 0.069011 0.36292 -0.93092
2010-08-10 13:35:24 51°21.993 3°7.961 26.4731 0.068907 0.362372 -0.93092
2010-08-10 13:36:23 51°21.962 3°7.669 26.503 0.068907 0.362383 -0.93092
2010-08-10 13:37:24 51°21.92 3°7.372 26.5164 0.068907 0.362394 -0.93092
2010-08-10 13:38:24 51°21.866 3°7.085 26.5096 0.068907 0.362411 -0.93092
2010-08-10 13:39:24 51°21.806 3°6.797 26.5223 0.068907 0.362427 -0.965744
2010-08-10 13:40:23 51°21.745 3°6.518 26.5198 0.069011 0.363003 -0.93092
2010-08-10 13:41:24 51°21.682 3°6.228 26.528 0.068907 0.362461 -0.965744
2010-08-10 13:42:24 51°21.619 3°5.945 26.5517 0.068907 0.362472 -0.93092
2010-08-10 13:43:24 51°21.557 3°5.664 26.5479 0.068907 0.362483 -0.93092
2010-08-10 13:44:23 51°21.501 3°5.389 26.5237 0.068907 0.362505 -0.93092
2010-08-10 13:45:24 51°21.441 3°5.103 26.544 0.068907 0.362511 -0.965744
2010-08-10 13:46:24 51°21.374 3°4.825 26.562 0.068907 0.362522 -0.965744
2010-08-10 13:47:24 51°21.297 3°4.551 26.5445 0.068907 0.362538 -0.965744
2010-08-10 13:48:24 51°21.225 3°4.273 26.5669 0.068907 0.362549 -1.000568
2010-08-10 13:49:24 51°21.151 3°3.994 26.566 0.068907 0.36256 -0.965744
2010-08-10 13:50:24 51°21.079 3°3.711 26.5579 0.068907 0.362572 -0.93092
2010-08-10 13:51:33 51°20.997 3°3.385 26.5605 0.068907 0.362583 -0.965744
2010-08-10 13:52:33 51°20.925 3°3.101 26.5879 0.068907 0.362594 -0.965744
2010-08-10 13:53:53 51°20.83 3°2.721 26.5943 0.068907 0.36261 -0.965744
2010-08-10 13:54:53 51°20.759 3°2.436 26.5861 0.068907 0.362632 -0.965744
2010-08-10 13:55:53 51°20.689 3°2.151 26.6071 0.068907 0.362655 -0.93092
2010-08-10 13:56:53 51°20.619 3°1.864 26.6203 0.068907 0.362666 -0.93092
2010-08-10 13:57:53 51°20.547 3°1.575 26.6187 0.068907 0.362677 -0.965744
2010-08-10 13:58:53 51°20.473 3°1.286 26.6407 0.068907 0.362699 -1.000568
2010-08-10 13:59:53 51°20.401 3°0.998 26.6492 0.068907 0.362716 -0.965744
2010-08-10 14:00:53 51°20.331 3°0.709 26.6342 0.068907 0.362721 -0.93092
2010-08-10 14:01:53 51°20.261 3°0.423 26.6785 0.068907 0.362721 -0.93092
2010-08-10 14:02:53 51°20.193 3°0.137 26.6512 0.068907 0.362743 -0.93092
2010-08-10 14:03:53 51°20.124 2°59.853 26.7167 0.068907 0.362755 -0.93092
2010-08-10 14:04:53 51°20.057 2°59.566 26.6587 0.068907 0.362755 -0.93092
2010-08-10 14:05:53 51°19.988 2°59.282 26.6651 0.068907 0.362777 -0.965744
2010-08-10 14:06:53 51°19.92 2°58.999 26.6904 0.068907 0.362788 -0.965744
2010-08-10 14:07:53 51°19.853 2°58.715 26.7018 0.068907 0.362804 -0.965744
2010-08-10 14:08:53 51°19.785 2°58.432 26.6933 0.068907 0.362827 -0.965744
2010-08-10 14:09:53 51°19.719 2°58.144 26.6897 0.068907 0.362843 -0.93092
2010-08-10 14:10:53 51°19.652 2°57.859 26.6886 0.068907 0.36286 -0.965744
2010-08-10 14:11:53 51°19.584 2°57.575 26.7084 0.068907 0.362877 -0.93092
2010-08-10 14:12:53 51°19.516 2°57.288 26.6993 0.068907 0.362893 -0.965744
2010-08-10 14:13:53 51°19.449 2°57.006 26.7417 0.068907 0.36291 -1.000568
2010-08-10 14:14:53 51°19.381 2°56.722 26.7357 0.068907 0.362921 -0.93092
2010-08-10 14:15:53 51°19.313 2°56.432 26.7381 0.068907 0.362938 -0.93092
2010-08-10 14:16:53 51°19.244 2°56.141 26.3272 0.068907 0.362954 -0.965744
2010-08-10 14:17:53 51°19.174 2°55.851 26.3867 0.068907 0.36296 -0.93092
2010-08-10 14:18:53 51°19.104 2°55.559 26.4809 0.068907 0.362977 -0.965744
2010-08-10 14:19:53 51°19.036 2°55.265 26.4402 0.068907 0.362999 -0.93092
2010-08-10 14:20:53 51°18.965 2°54.971 26.4826 0.068907 0.36301 -0.93092
2010-08-10 14:21:53 51°18.899 2°54.677 26.4446 0.068907 0.363021 -0.965744
2010-08-10 14:22:53 51°18.832 2°54.386 26.4491 0.068907 0.363043 -0.965744
2010-08-10 14:23:53 51°18.765 2°54.093 26.4557 0.068907 0.363038 -0.93092
2010-08-10 14:24:53 51°18.694 2°53.8 26.489 0.068907 0.36306 -0.965744
2010-08-10 14:25:53 51°18.61 2°53.519 26.5049 0.068907 0.363071 -0.93092
2010-08-10 14:26:53 51°18.523 2°53.246 26.4777 0.068907 0.363071 -0.965744
2010-08-10 14:27:53 51°18.421 2°52.986 26.5 0.068907 0.363082 -0.965744
2010-08-10 14:28:53 51°18.295 2°52.757 26.4855 0.068907 0.363082 -0.965744
2010-08-10 14:29:53 51°18.136 2°52.585 26.5354 0.068907 0.363088 -0.93092
2010-08-10 14:30:53 51°17.953 2°52.492 26.5287 0.068907 0.363105 -0.965744
2010-08-10 14:31:52 51°17.76 2°52.475 26.5274 0.068907 0.363116 -0.93092
2010-08-10 14:32:53 51°17.562 2°52.474 26.5022 0.068907 0.363127 -0.965744
2010-08-10 14:33:53 51°17.366 2°52.504 26.5083 0.068907 0.363116 -0.965744
2010-08-10 14:34:53 51°17.173 2°52.566 26.508 0.068907 0.363116 -0.93092
2010-08-10 14:35:53 51°16.981 2°52.653 26.5376 0.068907 0.363127 -0.965744
2010-08-10 14:36:53 51°16.797 2°52.783 26.5079 0.068907 0.363143 -0.93092
2010-08-10 14:37:53 51°16.617 2°52.935 26.4983 0.068907 0.363116 -0.965744
2010-08-10 14:38:53 51°16.431 2°53.066 26.4837 0.068907 0.363143 -0.965744
2010-08-10 14:39:53 51°16.242 2°53.189 26.4977 0.068907 0.36316 -0.965744
2010-08-10 14:40:53 51°16.052 2°53.313 26.487 0.068907 0.36316 -0.965744
2010-08-10 14:41:53 51°15.867 2°53.453 26.4882 0.068907 0.363177 -0.93092
2010-08-10 14:42:53 51°15.689 2°53.624 26.5013 0.068907 0.363182 -0.965744
2010-08-10 14:43:53 51°15.528 2°53.837 26.4947 0.068907 0.363166 -0.965744
2010-08-10 14:44:53 51°15.366 2°54.047 26.4926 0.068907 0.363171 -0.965744
2010-08-10 14:45:53 51°15.195 2°54.247 26.5044 0.069011 0.363759 -1.000568
2010-08-10 14:46:53 51°15.03 2°54.455 26.4963 0.068907 0.363188 -0.965744
2010-08-10 14:47:53 51°14.863 2°54.659 26.4971 0.068907 0.363194 -0.93092
2010-08-10 14:48:53 51°14.69 2°54.837 26.5054 0.069011 0.36377 -0.965744
2010-08-10 14:49:52 51°14.516 2°55.007 26.473 0.068907 0.363232 -0.965744
2010-08-10 14:50:53 51°14.357 2°55.183 26.4511 0.068907 0.363244 -0.93092
2010-08-10 14:51:53 51°14.22 2°55.329 26.4469 0.068907 0.363255 -0.965744
2010-08-10 14:52:53 51°14.094 2°55.437 26.4414 0.068907 0.363271 -0.93092
2010-08-10 14:57:13 51°13.707 2°55.809 26.4368 0.068907 0.363322 -0.965744
2010-08-10 14:58:13 51°13.673 2°55.918 26.4624 0.069011 0.363893 -0.93092
2010-08-10 14:59:13 51°13.662 2°55.959 26.4702 0.068907 0.363338 -0.965744